QPF
0.05 0.04 0.04 0.03 0.03 0.03 0.03 0.02 0.02 0.02 0.03 0.02 0.02 0.01 0.01 0.01 0.01 0.01 0.01 0.01 0.01 0.01 0.01 0.01 0.01 0.01 0.04 0.04 0.04 0.04 0.05 0.06 0.09 0.09 0.06 0.05 0.06 0.08 0.06 0.05 0.04 0.03 0.02
0.06 0.06 0.05 0.04 0.03 0.03 0.03 0.02 0.02 0.02 0.02 0.02 0.01 0.01 0.01 0.01 0.01 0.01 0.02 0.01 0.01 0.01 0.01 0.01 0.01 0.01 0.04 0.06 0.06 0.06 0.07 0.06 0.07 0.10 0.09 0.06 0.05 0.06 0.05 0.04 0.04 0.04 0.03
0.08 0.07 0.06 0.04 0.03 0.02 0.02 0.02 0.03 0.03 0.03 0.03 0.03 0.02 0.01 0.01 0.01 0.01 0.01 0.02 0.01 0.01 0.01 0.02 0.02 0.02 0.03 0.05 0.06 0.07 0.10 0.09 0.08 0.09 0.09 0.06 0.05 0.03 0.03 0.04 0.04 0.05 0.04
0.08 0.08 0.05 0.04 0.03 0.02 0.02 0.02 0.03 0.03 0.03 0.03 0.03 0.02 0.01 0.01 0.01 0.01 0.01 0.02 0.02 0.02 0.02 0.02 0.02 0.01 0.01 0.03 0.04 0.07 0.09 0.09 0.08 0.07 0.08 0.06 0.04 0.03 0.03 0.03 0.03 0.05 0.07
0.06 0.05 0.04 0.04 0.04 0.03 0.02 0.02 0.01 0.01 0.02 0.01 0.01 0.01 0.01 0.01 0.01 0.01 0.01 0.01 0.02 0.02 0.01 0.01 0.01 0.01 0.01 0.02 0.02 0.03 0.05 0.05 0.07 0.06 0.06 0.05 0.04 0.02 0.02 0.03 0.02 0.03 0.05
0.05 0.05 0.05 0.05 0.04 0.02 0.01 0.01 0.01 0.01 0.02 0.02 0.02 0.02 0.02 0.02 0.02 0.02 0.01 0.01 0.01 0.01 0.01 0.01 0.01 0.01 0.01 0.01 0.01 0.01 0.01 0.03 0.06 0.05 0.04 0.03 0.02 0.01 0.01 0.02 0.03 0.03 0.03
0.04 0.05 0.05 0.05 0.05 0.03 0.02 0.02 0.01 0.02 0.02 0.02 0.02 0.03 0.02 0.02 0.02 0.01 0.01 0.01 0.01 0.01 0.01 0.01 0.01 0.01 0.01 0.01 0.01 0.00 0.01 0.01 0.02 0.03 0.04 0.03 0.01 0.01 0.01 0.02 0.03 0.04 0.04
0.04 0.04 0.05 0.04 0.04 0.03 0.02 0.02 0.02 0.02 0.02 0.02 0.03 0.03 0.03 0.02 0.01 0.01 0.02 0.01 0.01 0.01 0.01 0.01 0.01 0.01 0.01 0.01 0.01 0.01 0.01 0.01 0.01 0.01 0.02 0.03 0.02 0.01 0.01 0.02 0.03 0.03 0.03
0.03 0.03 0.03 0.04 0.04 0.04 0.04 0.04 0.04 0.04 0.03 0.03 0.03 0.03 0.02 0.01 0.01 0.01 0.01 0.01 0.01 0.01 0.01 0.01 0.01 0.01 0.02 0.02 0.01 0.01 0.01 0.01 0.01 0.01 0.01 0.03 0.03 0.01 0.01 0.02 0.02 0.03 0.03
0.03 0.03 0.03 0.04 0.05 0.04 0.04 0.06 0.07 0.07 0.07 0.06 0.04 0.03 0.02 0.02 0.01 0.01 0.01 0.01 0.01 0.01 0.01 0.01 0.01 0.01 0.01 0.01 0.01 0.01 0.01 0.01 0.01 0.01 0.01 0.03 0.03 0.02 0.01 0.02 0.03 0.03 0.03
0.03 0.04 0.05 0.05 0.05 0.04 0.04 0.04 0.05 0.06 0.07 0.05 0.04 0.03 0.02 0.01 0.01 0.00 0.00 0.00 0.00 0.01 0.01 0.01 0.01 0.01 0.00 0.01 0.01 0.01 0.02 0.02 0.02 0.03 0.03 0.03 0.03 0.02 0.01 0.01 0.02 0.02 0.02
0.04 0.04 0.05 0.05 0.06 0.05 0.04 0.03 0.03 0.04 0.05 0.04 0.03 0.01 0.01 0.00 0.00 0.00 0.00 0.00 0.00 0.01 0.01 0.01 0.01 0.00 0.00 0.00 0.00 0.01 0.01 0.02 0.02 0.03 0.03 0.02 0.03 0.02 0.02 0.02 0.02 0.01 0.02
0.04 0.04 0.05 0.08 0.08 0.09 0.08 0.05 0.03 0.03 0.03 0.03 0.02 0.02 0.01 0.01 0.01 0.00 0.00 0.00 0.00 0.01 0.01 0.01 0.01 0.01 0.00 0.00 0.00 0.00 0.01 0.01 0.02 0.03 0.02 0.02 0.02 0.03 0.02 0.02 0.02 0.02 0.02
0.03 0.03 0.04 0.06 0.07 0.06 0.05 0.04 0.02 0.02 0.01 0.01 0.01 0.01 0.01 0.01 0.01 0.01 0.01 0.00 0.00 0.01 0.01 0.01 0.01 0.01 0.01 0.00 0.00 0.01 0.01 0.01 0.01 0.02 0.02 0.01 0.02 0.03 0.03 0.03 0.02 0.02 0.02
0.03 0.02 0.03 0.03 0.03 0.02 0.02 0.02 0.02 0.02 0.01 0.01 0.01 0.01 0.01 0.01 0.01 0.01 0.01 0.01 0.01 0.01 0.01 0.01 0.01 0.01 0.01 0.01 0.01 0.01 0.01 0.02 0.02 0.02 0.02 0.02 0.02 0.03 0.03 0.03 0.02 0.02 0.01
0.03 0.02 0.02 0.02 0.02 0.02 0.01 0.01 0.01 0.01 0.01 0.01 0.01 0.01 0.01 0.02 0.01 0.02 0.01 0.01 0.01 0.01 0.01 0.01 0.02 0.02 0.02 0.02 0.02 0.02 0.02 0.02 0.02 0.02 0.02 0.03 0.03 0.03 0.03 0.04 0.03 0.02 0.02
0.02 0.02 0.02 0.02 0.02 0.02 0.01 0.00 0.00 0.00 0.00 0.01 0.01 0.01 0.01 0.02 0.02 0.02 0.02 0.02 0.01 0.01 0.01 0.01 0.02 0.03 0.03 0.03 0.03 0.03 0.03 0.03 0.02 0.02 0.02 0.02 0.02 0.02 0.03 0.05 0.05 0.03 0.02
0.04 0.03 0.02 0.01 0.02 0.01 0.01 0.00 0.00 0.00 0.00 0.00 0.00 0.01 0.01 0.01 0.01 0.01 0.01 0.02 0.02 0.02 0.02 0.02 0.02 0.02 0.03 0.03 0.03 0.03 0.03 0.03 0.02 0.02 0.02 0.02 0.02 0.03 0.04 0.05 0.05 0.04 0.03
0.04 0.03 0.02 0.01 0.01 0.01 0.01 0.01 0.00 0.00 0.00 0.00 0.00 0.00 0.01 0.01 0.01 0.02 0.01 0.01 0.01 0.02 0.02 0.02 0.02 0.01 0.01 0.02 0.02 0.02 0.02 0.02 0.02 0.02 0.02 0.02 0.02 0.03 0.04 0.04 0.04 0.04 0.05
0.02 0.02 0.01 0.01 0.01 0.01 0.01 0.01 0.00 0.00 0.00 0.00 0.00 0.00 0.00 0.01 0.02 0.02 0.02 0.02 0.02 0.02 0.01 0.01 0.01 0.01 0.01 0.01 0.02 0.02 0.01 0.01 0.01 0.01 0.01 0.02 0.02 0.02 0.03 0.03 0.04 0.04 0.04
0.01 0.01 0.01 0.01 0.01 0.01 0.01 0.00 0.00 0.00 0.00 0.00 0.00 0.00 0.00 0.01 0.01 0.01 0.01 0.02 0.02 0.01 0.01 0.01 0.01 0.02 0.02 0.01 0.01 0.01 0.01 0.01 0.01 0.01 0.01 0.01 0.01 0.02 0.02 0.03 0.03 0.04 0.04
0.01 0.00 0.00 0.01 0.01 0.01 0.01 0.00 0.00 0.00 0.00 0.00 0.00 0.00 0.00 0.01 0.01 0.01 0.01 0.01 0.01 0.01 0.01 0.01 0.01 0.01 0.01 0.01 0.01 0.01 0.01 0.01 0.02 0.02 0.02 0.02 0.02 0.02 0.02 0.03 0.03 0.04 0.05
0.00 0.00 0.00 0.00 0.00 0.01 0.00 0.00 0.00 0.00 0.00 0.00 0.00 0.00 0.00 0.00 0.00 0.00 0.01 0.01 0.02 0.01 0.01 0.01 0.01 0.01 0.01 0.01 0.01 0.01 0.01 0.01 0.01 0.02 0.02 0.02 0.02 0.02 0.01 0.02 0.02 0.03 0.05
0.00 0.00 0.00 0.00 0.00 0.00 0.00 0.00 0.00 0.00 0.00 0.00 0.00 0.00 0.00 0.00 0.00 0.00 0.01 0.01 0.02 0.02 0.01 0.01 0.01 0.00 0.00 0.01 0.01 0.01 0.01 0.01 0.01 0.01 0.01 0.01 0.02 0.02 0.01 0.01 0.01 0.02 0.03
0.00 0.00 0.00 0.00 0.00 0.00 0.00 0.00 0.00 0.00 0.00 0.00 0.00 0.00 0.00 0.00 0.00 0.00 0.01 0.01 0.01 0.02 0.01 0.01 0.01 0.01 0.01 0.01 0.01 0.01 0.01 0.01 0.01 0.01 0.01 0.01 0.01 0.01 0.01 0.01 0.01 0.01 0.01
0.00 0.00 0.00 0.00 0.00 0.00 0.00 0.00 0.00 0.00 0.00 0.00 0.00 0.00 0.00 0.00 0.01 0.01 0.01 0.01 0.01 0.01 0.01 0.01 0.01 0.01 0.01 0.01 0.01 0.01 0.01 0.02 0.02 0.02 0.02 0.02 0.02 0.01 0.01 0.01 0.01 0.01 0.01
MSLP
1016.26 1016.51 1016.77 1017.01 1017.21 1017.34 1017.40 1017.41 1017.38 1017.35 1017.31 1017.28 1017.26 1017.21 1017.14 1017.01 1016.84 1016.61 1016.35 1016.08 1015.82 1015.59 1015.39 1015.22 1015.07 1014.92 1014.74 1014.51 1014.24 1013.90 1013.53 1013.12 1012.71 1012.30 1011.91 1011.56 1011.22 1010.91 1010.62 1010.35 1010.11 1009.91 1009.76
1016.46 1016.64 1016.84 1017.03 1017.18 1017.28 1017.33 1017.33 1017.31 1017.27 1017.22 1017.16 1017.09 1016.99 1016.86 1016.67 1016.43 1016.14 1015.83 1015.51 1015.20 1014.93 1014.70 1014.50 1014.34 1014.18 1014.02 1013.82 1013.60 1013.33 1013.03 1012.70 1012.37 1012.03 1011.69 1011.37 1011.04 1010.72 1010.41 1010.11 1009.82 1009.58 1009.39
1016.53 1016.66 1016.81 1016.94 1017.05 1017.12 1017.16 1017.15 1017.12 1017.07 1017.01 1016.93 1016.82 1016.68 1016.49 1016.24 1015.94 1015.60 1015.23 1014.87 1014.53 1014.22 1013.97 1013.76 1013.58 1013.43 1013.28 1013.12 1012.94 1012.73 1012.49 1012.24 1011.97 1011.69 1011.40 1011.10 1010.80 1010.48 1010.15 1009.82 1009.51 1009.23 1009.00
1016.49 1016.58 1016.68 1016.77 1016.84 1016.88 1016.90 1016.88 1016.85 1016.79 1016.71 1016.61 1016.47 1016.28 1016.04 1015.74 1015.39 1015.00 1014.60 1014.20 1013.84 1013.52 1013.25 1013.03 1012.86 1012.71 1012.58 1012.43 1012.28 1012.11 1011.91 1011.70 1011.48 1011.24 1010.99 1010.72 1010.44 1010.13 1009.81 1009.47 1009.14 1008.84 1008.60
1016.34 1016.41 1016.48 1016.54 1016.58 1016.59 1016.59 1016.56 1016.51 1016.44 1016.35 1016.22 1016.05 1015.82 1015.53 1015.19 1014.80 1014.38 1013.95 1013.53 1013.16 1012.83 1012.57 1012.35 1012.18 1012.04 1011.91 1011.77 1011.62 1011.46 1011.28 1011.09 1010.88 1010.66 1010.44 1010.20 1009.94 1009.66 1009.36 1009.04 1008.73 1008.43 1008.17
1016.13 1016.20 1016.26 1016.29 1016.30 1016.29 1016.26 1016.21 1016.15 1016.06 1015.95 1015.80 1015.59 1015.33 1015.00 1014.62 1014.20 1013.75 1013.30 1012.88 1012.51 1012.19 1011.93 1011.72 1011.55 1011.41 1011.27 1011.12 1010.96 1010.78 1010.58 1010.37 1010.16 1009.95 1009.73 1009.51 1009.29 1009.05 1008.79 1008.52 1008.25 1007.98 1007.74
1015.91 1015.98 1016.03 1016.05 1016.04 1016.01 1015.95 1015.88 1015.80 1015.69 1015.55 1015.36 1015.12 1014.82 1014.46 1014.04 1013.59 1013.12 1012.66 1012.24 1011.87 1011.56 1011.31 1011.11 1010.94 1010.79 1010.63 1010.46 1010.26 1010.04 1009.81 1009.57 1009.33 1009.10 1008.89 1008.69 1008.50 1008.31 1008.11 1007.91 1007.69 1007.48 1007.27
1015.70 1015.79 1015.84 1015.85 1015.82 1015.76 1015.68 1015.59 1015.47 1015.33 1015.16 1014.93 1014.65 1014.31 1013.91 1013.46 1012.98 1012.50 1012.03 1011.61 1011.24 1010.94 1010.69 1010.49 1010.32 1010.15 1009.97 1009.76 1009.52 1009.25 1008.97 1008.69 1008.42 1008.17 1007.96 1007.77 1007.62 1007.48 1007.35 1007.21 1007.07 1006.92 1006.76
1015.54 1015.64 1015.69 1015.69 1015.64 1015.56 1015.45 1015.32 1015.17 1014.99 1014.78 1014.51 1014.19 1013.81 1013.36 1012.88 1012.37 1011.86 1011.39 1010.96 1010.59 1010.29 1010.04 1009.84 1009.66 1009.47 1009.26 1009.02 1008.73 1008.42 1008.09 1007.77 1007.46 1007.20 1006.98 1006.81 1006.69 1006.60 1006.53 1006.46 1006.39 1006.30 1006.19
1015.43 1015.53 1015.57 1015.56 1015.49 1015.38 1015.24 1015.08 1014.89 1014.67 1014.41 1014.10 1013.73 1013.30 1012.82 1012.30 1011.76 1011.23 1010.73 1010.29 1009.92 1009.61 1009.36 1009.14 1008.95 1008.74 1008.51 1008.23 1007.91 1007.56 1007.20 1006.84 1006.52 1006.24 1006.02 1005.86 1005.77 1005.72 1005.69 1005.68 1005.66 1005.62 1005.56
1015.35 1015.45 1015.47 1015.44 1015.34 1015.21 1015.03 1014.83 1014.60 1014.34 1014.03 1013.68 1013.26 1012.79 1012.26 1011.71 1011.14 1010.59 1010.07 1009.61 1009.23 1008.90 1008.64 1008.41 1008.19 1007.97 1007.71 1007.41 1007.07 1006.70 1006.32 1005.95 1005.61 1005.33 1005.11 1004.96 1004.88 1004.86 1004.86 1004.88 1004.89 1004.89 1004.85
1015.29 1015.36 1015.37 1015.30 1015.18 1015.01 1014.81 1014.57 1014.30 1013.99 1013.64 1013.24 1012.78 1012.26 1011.70 1011.11 1010.52 1009.94 1009.41 1008.93 1008.52 1008.18 1007.90 1007.65 1007.41 1007.17 1006.89 1006.58 1006.23 1005.85 1005.47 1005.09 1004.76 1004.48 1004.27 1004.13 1004.05 1004.03 1004.05 1004.08 1004.10 1004.11 1004.09
1015.21 1015.26 1015.23 1015.14 1014.99 1014.79 1014.55 1014.28 1013.97 1013.62 1013.22 1012.77 1012.27 1011.72 1011.13 1010.51 1009.90 1009.30 1008.75 1008.26 1007.83 1007.47 1007.16 1006.89 1006.63 1006.37 1006.08 1005.76 1005.40 1005.03 1004.65 1004.29 1003.96 1003.69 1003.49 1003.35 1003.27 1003.25 1003.25 1003.27 1003.29 1003.30 1003.28
1015.11 1015.12 1015.06 1014.94 1014.76 1014.53 1014.26 1013.95 1013.60 1013.20 1012.77 1012.28 1011.74 1011.15 1010.53 1009.90 1009.27 1008.66 1008.10 1007.60 1007.16 1006.78 1006.46 1006.16 1005.88 1005.60 1005.30 1004.97 1004.61 1004.24 1003.87 1003.52 1003.21 1002.95 1002.75 1002.61 1002.53 1002.49 1002.48 1002.47 1002.47 1002.47 1002.45
1014.96 1014.94 1014.85 1014.70 1014.49 1014.23 1013.93 1013.58 1013.18 1012.75 1012.27 1011.74 1011.16 1010.55 1009.91 1009.26 1008.62 1008.02 1007.46 1006.96 1006.52 1006.13 1005.79 1005.48 1005.19 1004.88 1004.57 1004.23 1003.87 1003.50 1003.14 1002.80 1002.50 1002.25 1002.05 1001.91 1001.81 1001.75 1001.71 1001.69 1001.66 1001.64 1001.61
1014.76 1014.71 1014.59 1014.42 1014.18 1013.89 1013.55 1013.16 1012.73 1012.24 1011.71 1011.14 1010.53 1009.89 1009.24 1008.59 1007.96 1007.36 1006.82 1006.33 1005.91 1005.53 1005.19 1004.88 1004.57 1004.25 1003.92 1003.57 1003.21 1002.84 1002.48 1002.14 1001.84 1001.59 1001.39 1001.23 1001.12 1001.04 1000.97 1000.92 1000.88 1000.84 1000.81
1014.50 1014.42 1014.28 1014.08 1013.82 1013.50 1013.13 1012.69 1012.21 1011.68 1011.10 1010.48 1009.83 1009.17 1008.51 1007.87 1007.25 1006.69 1006.18 1005.73 1005.34 1004.99 1004.67 1004.36 1004.06 1003.74 1003.40 1003.04 1002.66 1002.28 1001.92 1001.57 1001.26 1001.00 1000.78 1000.61 1000.48 1000.37 1000.28 1000.21 1000.14 1000.09 1000.05
1014.17 1014.07 1013.91 1013.69 1013.41 1013.06 1012.65 1012.17 1011.64 1011.05 1010.42 1009.76 1009.08 1008.40 1007.74 1007.11 1006.53 1006.01 1005.56 1005.16 1004.82 1004.52 1004.24 1003.97 1003.68 1003.37 1003.03 1002.67 1002.28 1001.89 1001.50 1001.14 1000.81 1000.52 1000.28 1000.09 999.93 999.80 999.68 999.58 999.49 999.42 999.37
1013.78 1013.66 1013.48 1013.24 1012.94 1012.56 1012.11 1011.59 1011.01 1010.37 1009.70 1009.00 1008.29 1007.60 1006.95 1006.35 1005.81 1005.35 1004.97 1004.65 1004.39 1004.16 1003.94 1003.72 1003.47 1003.18 1002.86 1002.49 1002.09 1001.69 1001.28 1000.89 1000.53 1000.21 999.94 999.71 999.52 999.35 999.21 999.08 998.96 998.86 998.79
1013.32 1013.18 1012.99 1012.74 1012.41 1012.01 1011.53 1010.97 1010.35 1009.67 1008.96 1008.23 1007.51 1006.82 1006.19 1005.63 1005.15 1004.77 1004.46 1004.24 1004.07 1003.92 1003.79 1003.63 1003.44 1003.19 1002.89 1002.54 1002.14 1001.72 1001.29 1000.87 1000.47 1000.11 999.80 999.53 999.29 999.09 998.90 998.74 998.59 998.46 998.35
1012.82 1012.67 1012.47 1012.21 1011.86 1011.44 1010.94 1010.36 1009.71 1009.01 1008.27 1007.53 1006.81 1006.14 1005.54 1005.03 1004.62 1004.31 1004.10 1003.97 1003.90 1003.85 1003.80 1003.72 1003.59 1003.40 1003.14 1002.80 1002.41 1001.98 1001.53 1001.08 1000.65 1000.25 999.89 999.57 999.28 999.03 998.81 998.60 998.41 998.23 998.09
1012.30 1012.15 1011.95 1011.68 1011.34 1010.91 1010.40 1009.81 1009.15 1008.44 1007.70 1006.97 1006.27 1005.63 1005.07 1004.62 1004.28 1004.05 1003.92 1003.88 1003.90 1003.94 1003.98 1003.98 1003.92 1003.79 1003.57 1003.26 1002.89 1002.46 1002.00 1001.52 1001.06 1000.62 1000.21 999.84 999.50 999.20 998.93 998.68 998.44 998.22 998.03
1011.83 1011.68 1011.49 1011.22 1010.89 1010.47 1009.96 1009.38 1008.74 1008.05 1007.34 1006.63 1005.97 1005.37 1004.86 1004.47 1004.19 1004.03 1003.98 1004.01 1004.10 1004.22 1004.33 1004.39 1004.39 1004.31 1004.13 1003.86 1003.51 1003.09 1002.63 1002.15 1001.66 1001.18 1000.74 1000.33 999.95 999.60 999.29 998.99 998.72 998.46 998.22
1011.45 1011.32 1011.13 1010.89 1010.57 1010.17 1009.70 1009.15 1008.54 1007.89 1007.22 1006.57 1005.95 1005.41 1004.96 1004.61 1004.38 1004.28 1004.27 1004.35 1004.49 1004.65 1004.80 1004.91 1004.95 1004.91 1004.77 1004.53 1004.21 1003.81 1003.36 1002.88 1002.39 1001.90 1001.43 1000.99 1000.58 1000.21 999.86 999.54 999.23 998.95 998.68
1011.20 1011.09 1010.93 1010.71 1010.43 1010.08 1009.64 1009.15 1008.59 1008.00 1007.39 1006.79 1006.24 1005.75 1005.34 1005.04 1004.85 1004.76 1004.78 1004.87 1005.02 1005.19 1005.36 1005.48 1005.55 1005.53 1005.42 1005.22 1004.93 1004.56 1004.13 1003.67 1003.19 1002.70 1002.24 1001.79 1001.38 1000.99 1000.63 1000.30 999.99 999.70 999.42
1011.10 1011.02 1010.90 1010.72 1010.49 1010.18 1009.80 1009.37 1008.88 1008.35 1007.82 1007.29 1006.79 1006.35 1005.99 1005.71 1005.54 1005.45 1005.46 1005.54 1005.67 1005.82 1005.97 1006.09 1006.15 1006.14 1006.05 1005.88 1005.62 1005.29 1004.90 1004.47 1004.02 1003.56 1003.12 1002.69 1002.29 1001.91 1001.57 1001.25 1000.95 1000.68 1000.42
Thickness
5652 5648 5644 5641 5638 5635 5631 5628 5625 5621 5617 5613 5610 5606 5602 5599 5596 5592 5589 5587 5585 5583 5582 5580 5579 5577 5576 5576 5575 5574 5573 5572 5574 5577 5577 5580 5582 5585 5588 5590 5592 5596 5599
5647 5643 5640 5636 5633 5629 5627 5624 5621 5617 5614 5610 5606 5602 5599 5595 5592 5588 5585 5584 5581 5580 5578 5576 5575 5574 5572 5572 5572 5571 5571 5570 5571 5572 5573 5574 5576 5578 5580 5583 5586 5589 5592
5643 5639 5635 5632 5629 5626 5623 5621 5617 5613 5609 5606 5602 5598 5595 5592 5589 5586 5583 5581 5579 5577 5575 5573 5572 5570 5570 5569 5569 5569 5568 5568 5568 5568 5569 5569 5571 5572 5574 5577 5580 5582 5585
5638 5635 5632 5630 5627 5623 5620 5617 5613 5609 5605 5602 5599 5596 5593 5589 5586 5583 5581 5579 5576 5574 5572 5570 5569 5568 5567 5567 5567 5566 5566 5565 5565 5564 5565 5565 5566 5568 5569 5571 5574 5576 5580
5634 5631 5629 5626 5623 5620 5617 5613 5609 5605 5602 5599 5595 5593 5590 5587 5584 5581 5578 5577 5574 5572 5570 5569 5568 5567 5566 5565 5565 5564 5563 5563 5562 5562 5562 5562 5562 5564 5565 5567 5570 5571 5575
5632 5629 5626 5623 5620 5618 5615 5610 5606 5602 5599 5596 5593 5590 5587 5585 5582 5579 5576 5574 5572 5569 5568 5567 5566 5566 5565 5564 5563 5563 5562 5560 5560 5559 5559 5559 5560 5561 5562 5563 5565 5567 5571
5628 5626 5624 5620 5618 5616 5613 5608 5603 5599 5596 5594 5591 5587 5585 5583 5580 5578 5575 5573 5570 5568 5566 5565 5565 5565 5564 5563 5562 5561 5560 5559 5558 5558 5557 5558 5558 5559 5559 5560 5561 5564 5566
5624 5623 5621 5618 5614 5612 5609 5605 5601 5597 5594 5591 5588 5585 5582 5581 5578 5576 5574 5572 5569 5567 5565 5564 5563 5563 5562 5560 5560 5559 5559 5558 5557 5557 5557 5557 5557 5557 5556 5558 5558 5559 5561
5621 5620 5618 5615 5611 5608 5605 5602 5598 5595 5592 5589 5586 5583 5580 5579 5577 5574 5572 5569 5568 5566 5565 5564 5562 5561 5560 5558 5557 5557 5557 5557 5557 5556 5556 5556 5555 5555 5554 5554 5555 5557 5560
5619 5617 5615 5612 5609 5606 5603 5599 5596 5592 5590 5587 5585 5582 5579 5578 5576 5573 5570 5567 5566 5565 5565 5564 5562 5560 5558 5556 5555 5554 5554 5555 5554 5555 5554 5554 5554 5554 5553 5553 5554 5555 5557
5617 5614 5612 5610 5606 5603 5600 5597 5593 5591 5588 5585 5583 5581 5578 5577 5575 5572 5569 5566 5564 5564 5563 5563 5561 5559 5557 5555 5553 5552 5552 5552 5551 5551 5552 5553 5553 5553 5553 5552 5552 5553 5554
5614 5612 5609 5607 5604 5601 5598 5595 5592 5589 5586 5583 5580 5579 5577 5575 5573 5571 5569 5565 5563 5561 5561 5561 5559 5558 5556 5555 5553 5552 5551 5549 5549 5550 5550 5551 5552 5552 5552 5551 5551 5550 5551
5611 5609 5607 5604 5601 5598 5595 5592 5590 5587 5584 5581 5578 5576 5576 5574 5573 5570 5567 5565 5562 5560 5559 5558 5557 5556 5555 5554 5553 5552 5550 5549 5548 5547 5548 5549 5549 5548 5548 5548 5548 5548 5548
5609 5607 5604 5601 5599 5596 5593 5591 5587 5585 5582 5580 5578 5576 5575 5573 5571 5569 5566 5564 5561 5559 5557 5556 5555 5554 5553 5552 5551 5550 5549 5547 5546 5546 5546 5546 5545 5544 5545 5544 5545 5545 5545
5607 5605 5602 5599 5596 5593 5591 5589 5586 5585 5582 5579 5577 5575 5573 5572 5570 5566 5562 5560 5558 5556 5553 5552 5552 5552 5551 5550 5549 5548 5546 5545 5543 5542 5541 5541 5541 5541 5541 5540 5539 5540 5541
5605 5603 5600 5597 5594 5592 5589 5588 5587 5584 5583 5580 5577 5574 5572 5569 5567 5563 5560 5557 5554 5551 5549 5549 5548 5547 5546 5546 5545 5545 5543 5542 5540 5539 5537 5537 5537 5537 5537 5537 5536 5536 5537
5604 5602 5599 5596 5594 5591 5589 5586 5585 5585 5584 5581 5578 5575 5571 5568 5565 5562 5558 5555 5551 5548 5546 5545 5544 5543 5542 5541 5540 5539 5538 5537 5536 5534 5534 5533 5532 5532 5532 5532 5532 5532 5533
5605 5602 5599 5596 5593 5590 5588 5586 5584 5582 5580 5579 5578 5574 5571 5568 5564 5561 5557 5553 5551 5546 5543 5542 5541 5539 5537 5536 5535 5534 5533 5532 5531 5530 5529 5528 5527 5527 5527 5527 5527 5527 5528
5605 5602 5598 5596 5593 5590 5588 5586 5584 5581 5578 5576 5575 5574 5571 5567 5563 5559 5554 5550 5548 5546 5543 5540 5537 5535 5533 5531 5530 5528 5527 5526 5525 5524 5523 5523 5522 5521 5521 5522 5522 5521 5520
5604 5602 5599 5596 5593 5590 5588 5586 5584 5581 5579 5576 5574 5572 5569 5565 5562 5557 5552 5548 5545 5542 5540 5537 5534 5531 5529 5526 5525 5523 5522 5520 5519 5518 5517 5516 5516 5515 5516 5516 5517 5517 5517
5605 5602 5599 5596 5593 5590 5588 5586 5583 5581 5578 5575 5573 5570 5565 5562 5559 5555 5551 5546 5543 5539 5536 5533 5530 5526 5524 5521 5518 5517 5515 5513 5511 5510 5509 5509 5509 5508 5509 5510 5510 5511 5511
5605 5602 5599 5595 5593 5590 5588 5586 5583 5580 5577 5575 5572 5569 5564 5560 5556 5552 5548 5543 5539 5535 5531 5528 5525 5521 5518 5515 5512 5509 5508 5506 5505 5503 5502 5502 5502 5502 5502 5503 5504 5504 5504
5605 5602 5598 5595 5592 5590 5588 5586 5583 5580 5577 5573 5570 5566 5562 5557 5552 5548 5543 5539 5534 5530 5526 5522 5518 5515 5512 5508 5506 5503 5501 5500 5498 5497 5496 5496 5496 5495 5495 5495 5496 5496 5497
5605 5602 5598 5596 5593 5590 5587 5584 5581 5578 5575 5571 5566 5562 5558 5553 5548 5543 5538 5534 5529 5524 5520 5515 5511 5508 5505 5502 5499 5497 5494 5493 5491 5491 5490 5489 5489 5488 5488 5488 5488 5488 5489
5604 5601 5598 5595 5592 5589 5586 5583 5579 5575 5571 5567 5563 5558 5554 5549 5544 5538 5533 5528 5523 5518 5514 5509 5505 5502 5498 5495 5493 5491 5488 5487 5485 5484 5483 5482 5481 5480 5480 5480 5480 5480 5480
5604 5601 5597 5594 5591 5587 5584 5580 5576 5572 5568 5564 5559 5554 5549 5544 5539 5533 5528 5522 5517 5512 5507 5503 5499 5495 5492 5489 5486 5484 5482 5480 5479 5477 5475 5474 5473 5473 5472 5471 5471 5471 5470